Back to catalog

DELTA 1 DEB

AliveSSO
NORAD 14914·DEBRIS·🇺🇸 United States

Launched Mar 5, 1978 from Vandenberg Space Force Base

Loading…

Next Passes (next 24 hours)

TLE

FreshSource: Space-Track

Epoch: Sep 14, 2026, 20:51 UTC

1 14914U 78026GP  26257.86913358  .00000682  00000-0  21549-3 0  9997
2 14914  98.5453 293.3436 0041920   2.1821 177.8092 14.42899945330987

Track DELTA 1 DEB in real time with AllMySat

Download on the App Store